Location: Asheville, NC
(35.6000°N, 82.5500°W)
Time: 23:58:06

Vanguard 2 Rocket - Pass Details

Date: 15 March 2018
Orbit: 554 x 3327 km, 32.9° (Epoch: 19 March)

Event Time Altitude Azimuth Distance (km) Brightness Sun altitude
Rises 21:06:26 0° 272° (W) 2,899 11.1 -18.7°
Reaches altitude 10° 21:08:25 10° 267° (W) 2,126 9.9 -19.1°
Maximum altitude 21:13:06 55° 190° (S) 1,060 7.1 -20.1°
Enters shadow 21:16:02 32° 128° (SE) 1,732 7.8 -20.6°
